Kenosha, WI

7:29 PM CST on December 13, 2017 (GMT -0600)
Kenosha Regional

Weather History for KENW - May, 2013

Change the Weather History Date:

Friday, May 17, 2013

  Actual Average Record
Temperature  
Mean Temperature 57 °F -  
Max Temperature 64 °F 64 °F 84 °F (1958)
Min Temperature 51 °F 44 °F 33 °F (2002)
Degree Days  
Heating Degree Days 8    
Growing Degree Days 7 (Base 50)    
Moisture  
Dew Point 43 °F    
Average Humidity 62    
Maximum Humidity 77    
Minimum Humidity 53    
Precipitation  
Precipitation 0.02 in - - ()
Sea Level Pressure  
Sea Level Pressure 30.06 in    
Wind  
Wind Speed 10 mph (ENE)    
Max Wind Speed 18 mph    
Max Gust Speed 25 mph    
Visibility 10 miles    
Events Rain    
Averages and records for this station are not official NWS values.
T = Trace of Precipitation, MM = Missing Value Source: NWS Daily Summary

Daily Weather History Graph

Daily Weather History Graph

Search for Another Location

Airport or City:

Trip Planner

Search our weather history database for the weather conditions in past years. The results will help you decide how hot, cold, wet, or windy it might be!

Date:

Astronomy

May. 17, 2013 Rise Set
Actual Time 5:27 AM CDT 8:09 PM CDT
Civil Twilight 4:54 AM CDT 8:42 PM CDT
Nautical Twilight 4:13 AM CDT 9:23 PM CDT
Astronomical Twilight 3:27 AM CDT 10:10 PM CDT
Moon 12:03 PM CDT (5/17) 12:58 AM CDT (5/17)
Length of Visible Light 15h 47m
Length of Day
14h 42m
Waxing Crescent, 45% of the Moon is Illuminated
May 17
Waxing Crescent
May 17
First Quarter
May 24
Full
May 31
Last Quarter
Jun 8
New

Hourly Weather History & Observations

Time (CDT) Temp. Dew Point Humidity Pressure Visibility Wind Dir Wind Speed Gust Speed Precip Events Conditions
12:53 AM 51.1 °F 36.0 °F 56% 29.99 in 10.0 mi ENE 4.6 mph - N/A   Clear
1:53 AM 54.0 °F 39.9 °F 59% 29.99 in 10.0 mi East 6.9 mph - N/A   Clear
2:53 AM 57.0 °F 39.9 °F 53% 29.98 in 10.0 mi East 8.1 mph - N/A   Mostly Cloudy
3:53 AM 57.0 °F 39.9 °F 53% 29.99 in 10.0 mi East 6.9 mph - N/A   Mostly Cloudy
4:53 AM 54.0 °F 41.0 °F 62% 30.00 in 10.0 mi East 9.2 mph - N/A   Clear
5:53 AM 55.0 °F 42.1 °F 62% 30.03 in 10.0 mi ENE 10.4 mph - N/A   Overcast
6:53 AM 55.0 °F 44.1 °F 67% 30.03 in 10.0 mi East 11.5 mph - N/A   Overcast
7:53 AM 55.9 °F 44.1 °F 64% 30.05 in 10.0 mi East 8.1 mph - N/A   Overcast
8:53 AM 55.9 °F 45.0 °F 67% 30.06 in 10.0 mi ENE 9.2 mph - N/A   Overcast
9:53 AM 55.0 °F 44.1 °F 67% 30.09 in 10.0 mi NE 9.2 mph - N/A   Overcast
10:53 AM 52.0 °F 42.1 °F 69% 30.11 in 10.0 mi NNE 15.0 mph 21.9 mph N/A   Overcast
11:38 AM 55.4 °F 42.8 °F 63% 30.10 in 10.0 mi NE 13.8 mph 25.3 mph N/A   Overcast
11:53 AM 55.9 °F 43.0 °F 62% 30.10 in 10.0 mi NE 18.4 mph 23.0 mph N/A   Overcast
12:14 PM 57.2 °F 42.8 °F 59% 30.09 in 10.0 mi ENE 17.3 mph - N/A   Overcast
12:53 PM 57.9 °F 42.1 °F 56% 30.10 in 10.0 mi ENE 17.3 mph 24.2 mph N/A   Overcast
1:00 PM 57.2 °F 42.8 °F 59% 30.09 in 10.0 mi ENE 16.1 mph - N/A   Overcast
1:53 PM 57.9 °F 43.0 °F 58% 30.09 in 10.0 mi ENE 16.1 mph - N/A   Mostly Cloudy
2:53 PM 60.1 °F 44.1 °F 55% 30.07 in 10.0 mi ENE 11.5 mph - N/A   Scattered Clouds
3:53 PM 63.0 °F 46.0 °F 54% 30.06 in 10.0 mi ENE 16.1 mph - N/A   Clear
4:53 PM 62.1 °F 45.0 °F 53% 30.06 in 10.0 mi ENE 13.8 mph - N/A   Mostly Cloudy
5:53 PM 59.0 °F 44.1 °F 58% 30.06 in 10.0 mi ENE 12.7 mph - N/A   Overcast
6:53 PM 57.9 °F 42.1 °F 56% 30.07 in 10.0 mi East 9.2 mph - N/A   Overcast
7:53 PM 55.9 °F 43.0 °F 62% 30.06 in 10.0 mi East 10.4 mph - 0.00 in   Overcast
8:53 PM 53.1 °F 46.0 °F 77% 30.07 in 10.0 mi NE 4.6 mph - 0.02 in Rain Light Rain
9:53 PM 54.0 °F 46.0 °F 75% 30.09 in 10.0 mi ENE 4.6 mph - 0.00 in   Overcast
10:53 PM 53.1 °F 44.1 °F 71% 30.07 in 10.0 mi NE 8.1 mph - N/A   Mostly Cloudy
11:53 PM 53.1 °F 44.1 °F 71% 30.05 in 10.0 mi ENE 10.4 mph - N/A   Clear